Regional Weather Roundup
Issued by NWS

Current Version | Previous Version | Text Only | Print | Product List | Glossary On
Versions: 1 2 3 4 5 6 7 8 9 10 11 12 13 14 15 16 17 18 19 20 21 22 23 24 25 26 27 28 29 30 31 32 33 34 35 36 37 38 39 40 41 42 43 44 45 46 47 48 49 50
000
ASUS43 KOAX 290810
RWRNE

WEATHER ROUNDUP FOR NEBRASKA
NATIONAL WEATHER SERVICE OMAHA NE
300 AM CDT MON AUG 29 2016

NOTES: SATELLITE DATA IS BEING USED TO AUGMENT CLOUD COVER ABOVE
       12000 FEET.
       "FAIR" INDICATES FEW OR NO CLOUDS BELOW 12,000 FEET WITH NO
       SIGNIFICANT WEATHER AND/OR OBSTRUCTIONS TO VISIBILITY.

  * THESE STATIONS DO NOT REPORT WEATHER SUCH AS RAIN...SNOW OR FOG.

NEZ001>004-019>022-054>056-290900-
NEBRASKA PANHANDLE

CITY           SKY/WX    TMP DP  RH WIND       PRES   REMARKS
SCOTTSBLUFF    MOCLDY    57  52  83 NE3       30.16S
ALLIANCE       CLOUDY    56  53  90 SE8       30.16R
CHADRON        PTCLDY    59  52  77 SW3       30.11S
KIMBALL        CLOUDY    58  51  76 W7        30.22F
SIDNEY         CLOUDY    54  51  90 CALM      30.19F
$$

NEZ057>060-069>072-079>082-290900-
SOUTHWEST NEBRASKA

CITY           SKY/WX    TMP DP  RH WIND       PRES   REMARKS
NORTH PLATTE   PTCLDY    62  60  93 E7        30.15S
IMPERIAL       CLOUDY    68  62  81 S12       30.15S
LEXINGTON      CLOUDY    70  65  84 SE10G16   30.17S
MCCOOK         CLOUDY    65  62  90 E5        30.14S
OGALLALA       CLEAR     65  59  79 N3        30.15F
$$

NEZ005>010-023>029-035>040-094-290900-
NORTH CENTRAL NEBRASKA

CITY           SKY/WX    TMP DP  RH WIND       PRES   REMARKS
VALENTINE      CLEAR     66  58  75 SW8       30.12R
AINSWORTH      CLEAR     65  61  89 S8        30.13R
BROKEN BOW     MOCLDY    68  67  96 S9        30.15S
O`NEILL        PTCLDY    71  67  88 S7        30.12S
ORD            PTCLDY    69  64  84 S7        30.12S
THEDFORD       CLEAR     61  58  92 CALM      30.17R
$$

NEZ041-046>049-061>064-073>077-083>087-290900-
SOUTH CENTRAL NEBRASKA

CITY           SKY/WX    TMP DP  RH WIND       PRES   REMARKS
GRAND ISLAND   LGT RAIN  68  63  84 S20       30.15S
AURORA         LGT RAIN  67  66  97 SW10      30.16S
HASTINGS       RAIN      65  63  93 S10       30.20R FOG
HEBRON         CLOUDY    67  66  96 CALM      30.16R
HOLDREGE       PTCLDY    68  65  89 SE14G23   30.18S
KEARNEY *      MOCLDY   N/A N/A N/A S15       30.16R
YORK           CLOUDY    68  64  88 SW10      30.15F
$$

NEZ011>018-030>034-042>045-290900-
NORTHEAST NEBRASKA

CITY           SKY/WX    TMP DP  RH WIND       PRES   REMARKS
NORFOLK        CLOUDY    68  65  90 SE5       30.13R
ALBION         CLOUDY    68  65  88 CALM      30.13S
BLAIR          MOCLDY    69  67  92 E5        30.15S
FREMONT        CLOUDY    70  66  88 CALM      30.15R
TEKAMAH        MOCLDY    68  66  93 CALM      30.15R
WAYNE          CLOUDY    67  66  96 CALM      30.14R
$$

NEZ050>053-065>068-078-088>093-290900-
SOUTHEAST NEBRASKA

CITY           SKY/WX    TMP DP  RH WIND       PRES   REMARKS
LINCOLN        CLOUDY    73  68  84 SW3       30.14S
OMAHA EPPLEY   CLOUDY    71  65  81 SE5       30.14S
BEATRICE       PTCLDY    69  69  98 CALM      30.13S
FALLS CITY     CLOUDY    69  68  96 E5        30.13R
NEBRASKA CITY  CLOUDY    68  68 100 CALM      30.14S
PLATTSMOUTH    MOCLDY    69  67  96 E3        30.14S
$$

NEZ044-045-051>053-067-290900-
OMAHA AREA

CITY           SKY/WX    TMP DP  RH WIND       PRES   REMARKS
OMAHA EPPLEY   CLOUDY    71  65  81 SE5       30.14S
BLAIR          MOCLDY    69  67  92 E5        30.15S
FREMONT        CLOUDY    70  66  88 CALM      30.15R
MILLARD        CLOUDY    71  67  86 CALM      30.14S
OFFUTT AFB     CLOUDY    69  68  99 NE5       30.13S
PLATTSMOUTH    MOCLDY    69  67  96 E3        30.14S
WAHOO          FAIR      68  65  93 CALM      30.14R
$$



USA.gov is the U.S. government's official web portal to all federal, state and local government web resources and services.